星链-31928 (STARLINK-31928 )

导读 | 豆包AI

STARLINK-31928是美国太空探索技术公司(SpaceX)于2024年5月28日发射的星链卫星,属于Starlink星座组网卫星。星链计划旨在构建全球卫星互联网系统,为全球偏远地区等提供高速宽带互联网服务,该卫星的发射进一步扩充了星链星座的在轨卫星数量,推进了星座的全球覆盖部署进程。

Basic Information
目录编号:
59897
目录名称:
STARLINK-31928
国际标识:
2024-100N
轨道中心:
EARTH
卫星名称:
星链-31928
卫星全名:
星链-31928 (STARLINK-31928 )
卫星状态:
在轨 (已飞行703 天)
发射日期:
2024-05-28 UTC
国别 :
美国 (US)
星等 :
--
Orbit Information
数据来源 国际轨道数据 AOE轨道数据
星历时间 2026-04-30T22:34:08+0800
12小时前
查看轨道信息
2026-04-25T07:00:00+0800
6天前
查看轨道信息
半长轴 6861.169km 6861.236km
偏心率 0.0001664 0.0001614
轨道倾角 43.000° 42.998°
近地点辐角 268.993° 295.549°
升交点赤经 192.482° 224.388°
平近点角 91.073° 284.217°
近地点 481.89km 481.991km
远地点 484.174km 484.207km
周期 94.266分钟 94.268分钟
每日圈数 15.275858 15.275635
Detailed Information
固有亮度:
5
最大亮度:
1.5
卫星平台:
Starlink v2.0 mini
覆盖范围:
全球
运营商:
太空探索技术公司
运营商所在国:
美国
制造商(研发单位):
太空探索技术公司
制造商所在国:
美国
使用方式:
暂无
Satellite Introduction
星链(Starlink)计划是由太空探索技术公司(SpaceX)提出的一个巨型低轨卫星互联网星座项目,计划在2019年至2024年间在太空搭建由约1.2万颗卫星组成的“星链”网络,其中1584颗将部署在地球上空550千米处的近地轨道,并从2020年开始工作。该卫星仍在工作。
2D Orbit Map
3D Orbit Map
Orbit Altitude Analysis Chart
Orbit Inclination Analysis Chart
Orbit Comprehensive Analysis Chart
View Comprehensive Chart